Year,Month,Day,Hour,Minute,Value (Times are PST for temperature in C)
2016,07,26,00,00,20.20
2016,07,26,00,01,20.20
2016,07,26,00,02,20.10
2016,07,26,00,03,20.10
2016,07,26,00,04,20.00
2016,07,26,00,05,19.90
2016,07,26,00,06,19.90
2016,07,26,00,07,19.80
2016,07,26,00,08,19.80
2016,07,26,00,09,19.70
2016,07,26,00,10,19.70
2016,07,26,00,11,19.70
2016,07,26,00,12,19.60
2016,07,26,00,13,19.60
2016,07,26,00,14,19.60
2016,07,26,00,15,19.50
2016,07,26,00,16,19.50
2016,07,26,00,17,19.50
2016,07,26,00,18,19.50
2016,07,26,00,19,19.40
2016,07,26,00,20,19.40
2016,07,26,00,21,19.40
2016,07,26,00,22,19.30
2016,07,26,00,23,19.30
2016,07,26,00,24,19.30
2016,07,26,00,25,19.30
2016,07,26,00,26,19.30
2016,07,26,00,27,19.20
2016,07,26,00,28,19.20
2016,07,26,00,29,19.20
2016,07,26,00,30,19.20
2016,07,26,00,31,19.20
2016,07,26,00,32,19.20
2016,07,26,00,33,19.20
2016,07,26,00,34,19.20
2016,07,26,00,35,19.20
2016,07,26,00,36,19.20
2016,07,26,00,37,19.20
2016,07,26,00,38,19.20
2016,07,26,00,39,19.20
2016,07,26,00,40,19.20
2016,07,26,00,41,19.20
2016,07,26,00,42,19.20
2016,07,26,00,43,19.30
2016,07,26,00,44,19.30
2016,07,26,00,45,19.30
2016,07,26,00,46,19.30
2016,07,26,00,47,19.30
2016,07,26,00,48,19.30
2016,07,26,00,49,19.30
2016,07,26,00,50,19.30
2016,07,26,00,51,19.20
2016,07,26,00,52,19.20
2016,07,26,00,53,19.20
2016,07,26,00,54,19.20
2016,07,26,00,55,19.20
2016,07,26,00,56,19.20
2016,07,26,00,57,19.20
2016,07,26,00,58,19.20
2016,07,26,00,59,19.20
2016,07,26,01,00,19.20
2016,07,26,01,01,19.10
2016,07,26,01,02,19.10
2016,07,26,01,03,19.10
2016,07,26,01,04,19.10
2016,07,26,01,05,19.00
2016,07,26,01,06,19.10
2016,07,26,01,07,19.10
2016,07,26,01,08,19.20
2016,07,26,01,09,19.20
2016,07,26,01,10,19.20
2016,07,26,01,11,19.20
2016,07,26,01,12,19.20
2016,07,26,01,13,19.20
2016,07,26,01,14,19.20
2016,07,26,01,15,19.20
2016,07,26,01,16,19.20
2016,07,26,01,17,19.20
2016,07,26,01,18,19.10
2016,07,26,01,19,19.10
2016,07,26,01,20,19.10
2016,07,26,01,21,19.10
2016,07,26,01,22,19.00
2016,07,26,01,23,19.00
2016,07,26,01,24,19.00
2016,07,26,01,25,19.00
2016,07,26,01,26,18.90
2016,07,26,01,27,18.90
2016,07,26,01,28,18.90
2016,07,26,01,29,18.90
2016,07,26,01,30,18.80
2016,07,26,01,31,18.80
2016,07,26,01,32,18.80
2016,07,26,01,33,18.80
2016,07,26,01,34,18.80
2016,07,26,01,35,18.70
2016,07,26,01,36,18.70
2016,07,26,01,37,18.70
2016,07,26,01,38,18.60
2016,07,26,01,39,18.60
2016,07,26,01,40,18.60
2016,07,26,01,41,18.60
2016,07,26,01,42,18.50
2016,07,26,01,43,18.50
2016,07,26,01,44,18.40
2016,07,26,01,45,18.40
2016,07,26,01,46,18.40
2016,07,26,01,47,18.30
2016,07,26,01,48,18.30
2016,07,26,01,49,18.30
2016,07,26,01,50,18.30
2016,07,26,01,51,18.20
2016,07,26,01,52,18.20
2016,07,26,01,53,18.20
2016,07,26,01,54,18.10
2016,07,26,01,55,18.10
2016,07,26,01,56,18.00
2016,07,26,01,57,17.90
2016,07,26,01,58,17.90
2016,07,26,01,59,17.80
2016,07,26,02,00,17.80
2016,07,26,02,01,17.80
2016,07,26,02,02,17.70
2016,07,26,02,03,17.70
2016,07,26,02,04,17.60
2016,07,26,02,05,17.60
2016,07,26,02,06,17.60
2016,07,26,02,07,17.50
2016,07,26,02,08,17.50
2016,07,26,02,09,17.50
2016,07,26,02,10,17.40
2016,07,26,02,11,17.40
2016,07,26,02,12,17.40
2016,07,26,02,13,17.40
2016,07,26,02,14,17.30
2016,07,26,02,15,17.30
2016,07,26,02,16,17.30
2016,07,26,02,17,17.20
2016,07,26,02,18,17.20
2016,07,26,02,19,17.20
2016,07,26,02,20,17.20
2016,07,26,02,21,17.20
2016,07,26,02,22,17.10
2016,07,26,02,23,17.10
2016,07,26,02,24,17.10
2016,07,26,02,25,17.00
2016,07,26,02,26,17.00
2016,07,26,02,27,16.90
2016,07,26,02,28,16.90
2016,07,26,02,29,16.90
2016,07,26,02,30,16.90
2016,07,26,02,31,16.90
2016,07,26,02,32,16.80
2016,07,26,02,33,16.80
2016,07,26,02,34,16.80
2016,07,26,02,35,16.80
2016,07,26,02,36,16.70
2016,07,26,02,37,16.70
2016,07,26,02,38,16.70
2016,07,26,02,39,16.70
2016,07,26,02,40,16.80
2016,07,26,02,41,16.80
2016,07,26,02,42,16.80
2016,07,26,02,43,16.80
2016,07,26,02,44,16.70
2016,07,26,02,45,16.70
2016,07,26,02,46,16.70
2016,07,26,02,47,16.70
2016,07,26,02,48,16.70
2016,07,26,02,49,16.60
2016,07,26,02,50,16.60
2016,07,26,02,51,16.60
2016,07,26,02,52,16.60
2016,07,26,02,53,16.50
2016,07,26,02,54,16.50
2016,07,26,02,55,16.50
2016,07,26,02,56,16.40
2016,07,26,02,57,16.40
2016,07,26,02,58,16.40
2016,07,26,02,59,16.40
2016,07,26,03,00,16.40
2016,07,26,03,01,16.30
2016,07,26,03,02,16.30
2016,07,26,03,03,16.30
2016,07,26,03,04,16.30
2016,07,26,03,05,16.30
2016,07,26,03,06,16.30
2016,07,26,03,07,16.30
2016,07,26,03,08,16.20
2016,07,26,03,09,16.20
2016,07,26,03,10,16.20
2016,07,26,03,11,16.20
2016,07,26,03,12,16.20
2016,07,26,03,13,16.20
2016,07,26,03,14,16.20
2016,07,26,03,15,16.20
2016,07,26,03,16,16.20
2016,07,26,03,17,16.10
2016,07,26,03,18,16.10
2016,07,26,03,19,16.10
2016,07,26,03,20,16.10
2016,07,26,03,21,16.10
2016,07,26,03,22,16.10
2016,07,26,03,23,16.00
2016,07,26,03,24,16.00
2016,07,26,03,25,16.00
2016,07,26,03,26,15.90
2016,07,26,03,27,15.90
2016,07,26,03,28,15.90
2016,07,26,03,29,15.90
2016,07,26,03,30,15.80
2016,07,26,03,31,15.80
2016,07,26,03,32,15.80
2016,07,26,03,33,15.80
2016,07,26,03,34,15.80
2016,07,26,03,35,15.80
2016,07,26,03,36,15.80
2016,07,26,03,37,15.80
2016,07,26,03,38,15.80
2016,07,26,03,39,15.80
2016,07,26,03,40,15.80
2016,07,26,03,41,15.70
2016,07,26,03,42,15.70
2016,07,26,03,43,15.70
2016,07,26,03,44,15.70
2016,07,26,03,45,15.70
2016,07,26,03,46,15.70
2016,07,26,03,47,15.60
2016,07,26,03,48,15.60
2016,07,26,03,49,15.60
2016,07,26,03,50,15.60
2016,07,26,03,51,15.60
2016,07,26,03,52,15.60
2016,07,26,03,53,15.60
2016,07,26,03,54,15.50
2016,07,26,03,55,15.60
2016,07,26,03,56,15.60
2016,07,26,03,57,15.60
2016,07,26,03,58,15.60
2016,07,26,03,59,15.60
2016,07,26,04,00,15.60
2016,07,26,04,01,15.60
2016,07,26,04,02,15.60
2016,07,26,04,03,15.60
2016,07,26,04,04,15.60
2016,07,26,04,05,15.60
2016,07,26,04,06,15.50
2016,07,26,04,07,15.50
2016,07,26,04,08,15.50
2016,07,26,04,09,15.50
2016,07,26,04,10,15.50
2016,07,26,04,11,15.40
2016,07,26,04,12,15.40
2016,07,26,04,13,15.40
2016,07,26,04,14,15.40
2016,07,26,04,15,15.40
2016,07,26,04,16,15.40
2016,07,26,04,17,15.40
2016,07,26,04,18,15.40
2016,07,26,04,19,15.40
2016,07,26,04,20,15.40
2016,07,26,04,21,15.40
2016,07,26,04,22,15.40
2016,07,26,04,23,15.40
2016,07,26,04,24,15.50
2016,07,26,04,25,15.50
2016,07,26,04,26,15.50
2016,07,26,04,27,15.50
2016,07,26,04,28,15.60
2016,07,26,04,29,15.60
2016,07,26,04,30,15.60
2016,07,26,04,31,15.70
2016,07,26,04,32,15.70
2016,07,26,04,33,15.70
2016,07,26,04,34,15.80
2016,07,26,04,35,15.80
2016,07,26,04,36,15.90
2016,07,26,04,37,15.90
2016,07,26,04,38,16.00
2016,07,26,04,39,16.00
2016,07,26,04,40,16.00
2016,07,26,04,41,16.00
2016,07,26,04,42,16.00
2016,07,26,04,43,16.00
2016,07,26,04,44,15.90
2016,07,26,04,45,15.90
2016,07,26,04,46,15.90
2016,07,26,04,47,15.90
2016,07,26,04,48,15.90
2016,07,26,04,49,16.00
2016,07,26,04,50,16.00
2016,07,26,04,51,16.00
2016,07,26,04,52,16.00
2016,07,26,04,53,16.00
2016,07,26,04,54,16.00
2016,07,26,04,55,16.10
2016,07,26,04,56,16.10
2016,07,26,04,57,16.10
2016,07,26,04,58,16.10
2016,07,26,04,59,16.10
2016,07,26,05,00,16.10
2016,07,26,05,01,16.10
2016,07,26,05,02,16.10
2016,07,26,05,03,16.10
2016,07,26,05,04,16.10
2016,07,26,05,05,16.10
2016,07,26,05,06,16.10
2016,07,26,05,07,16.20
2016,07,26,05,08,16.20
2016,07,26,05,09,16.20
2016,07,26,05,10,16.30
2016,07,26,05,11,16.30
2016,07,26,05,12,16.40
2016,07,26,05,13,16.40
2016,07,26,05,14,16.40
2016,07,26,05,15,16.50
2016,07,26,05,16,16.50
2016,07,26,05,17,16.50
2016,07,26,05,18,16.50
2016,07,26,05,19,16.60
2016,07,26,05,20,16.50
2016,07,26,05,21,16.50
2016,07,26,05,22,16.50
2016,07,26,05,23,16.50
2016,07,26,05,24,16.40
2016,07,26,05,25,16.40
2016,07,26,05,26,16.40
2016,07,26,05,27,16.40
2016,07,26,05,28,16.40
2016,07,26,05,29,16.40
2016,07,26,05,30,16.40
2016,07,26,05,31,16.40
2016,07,26,05,32,16.40
2016,07,26,05,33,16.40
2016,07,26,05,34,16.40
2016,07,26,05,35,16.40
2016,07,26,05,36,16.40
2016,07,26,05,37,16.40
2016,07,26,05,38,16.40
2016,07,26,05,39,16.30
2016,07,26,05,40,16.30
2016,07,26,05,41,16.30
2016,07,26,05,42,16.30
2016,07,26,05,43,16.30
2016,07,26,05,44,16.30
2016,07,26,05,45,16.20
2016,07,26,05,46,16.20
2016,07,26,05,47,16.20
2016,07,26,05,48,16.10
2016,07,26,05,49,16.10
2016,07,26,05,50,16.10
2016,07,26,05,51,16.10
2016,07,26,05,52,16.00
2016,07,26,05,53,16.00
2016,07,26,05,54,15.90
2016,07,26,05,55,15.90
2016,07,26,05,56,15.90
2016,07,26,05,57,15.90
2016,07,26,05,58,15.90
2016,07,26,05,59,15.90
2016,07,26,06,00,15.90
2016,07,26,06,01,15.90
2016,07,26,06,02,15.90
2016,07,26,06,03,15.90
2016,07,26,06,04,15.90
2016,07,26,06,05,15.80
2016,07,26,06,06,15.80
2016,07,26,06,07,15.80
2016,07,26,06,08,15.80
2016,07,26,06,09,15.80
2016,07,26,06,10,15.80
2016,07,26,06,11,15.80
2016,07,26,06,12,15.70
2016,07,26,06,13,15.80
2016,07,26,06,14,15.80
2016,07,26,06,15,15.80
2016,07,26,06,16,15.80
2016,07,26,06,17,15.80
2016,07,26,06,18,15.80
2016,07,26,06,19,15.80
2016,07,26,06,20,15.80
2016,07,26,06,21,15.80
2016,07,26,06,22,15.80
2016,07,26,06,23,15.80
2016,07,26,06,24,15.80
2016,07,26,06,25,15.80
2016,07,26,06,26,15.70
2016,07,26,06,27,15.70
2016,07,26,06,28,15.70
2016,07,26,06,29,15.70
2016,07,26,06,30,15.70
2016,07,26,06,31,15.70
2016,07,26,06,32,15.70
2016,07,26,06,33,15.70
2016,07,26,06,34,15.70
2016,07,26,06,35,15.80
2016,07,26,06,36,15.80
2016,07,26,06,37,15.80
2016,07,26,06,38,15.80
2016,07,26,06,39,15.80
2016,07,26,06,40,15.80
2016,07,26,06,41,15.80
2016,07,26,06,42,15.80
2016,07,26,06,43,15.80
2016,07,26,06,44,15.80
2016,07,26,06,45,15.80
2016,07,26,06,46,15.80
2016,07,26,06,47,15.80
2016,07,26,06,48,15.80
2016,07,26,06,49,15.80
2016,07,26,06,50,15.80
2016,07,26,06,51,15.80
2016,07,26,06,52,15.80
2016,07,26,06,53,15.80
2016,07,26,06,54,15.80
2016,07,26,06,55,15.70
2016,07,26,06,56,15.70
2016,07,26,06,57,15.70
2016,07,26,06,58,15.70
2016,07,26,06,59,15.70
2016,07,26,07,00,15.70
2016,07,26,07,01,15.70
2016,07,26,07,02,15.70
2016,07,26,07,03,15.80
2016,07,26,07,04,15.80
2016,07,26,07,05,15.80
2016,07,26,07,06,15.80
2016,07,26,07,07,15.80
2016,07,26,07,08,15.80
2016,07,26,07,09,15.80
2016,07,26,07,10,15.90
2016,07,26,07,11,15.90
2016,07,26,07,12,15.90
2016,07,26,07,13,16.00
2016,07,26,07,14,16.00
2016,07,26,07,15,16.10
2016,07,26,07,16,16.10
2016,07,26,07,17,16.20
2016,07,26,07,18,16.20
2016,07,26,07,19,16.20
2016,07,26,07,20,16.30
2016,07,26,07,21,16.30
2016,07,26,07,22,16.40
2016,07,26,07,23,16.40
2016,07,26,07,24,16.50
2016,07,26,07,25,16.50
2016,07,26,07,26,16.60
2016,07,26,07,27,16.70
2016,07,26,07,28,16.70
2016,07,26,07,29,16.80
2016,07,26,07,30,16.80
2016,07,26,07,31,16.90
2016,07,26,07,32,16.90
2016,07,26,07,33,17.00
2016,07,26,07,34,17.00
2016,07,26,07,35,17.00
2016,07,26,07,36,17.00
2016,07,26,07,37,17.00
2016,07,26,07,38,17.00
2016,07,26,07,39,17.00
2016,07,26,07,40,17.10
2016,07,26,07,41,17.10
2016,07,26,07,42,17.10
2016,07,26,07,43,17.10
2016,07,26,07,44,17.20
2016,07,26,07,45,17.20
2016,07,26,07,46,17.20
2016,07,26,07,47,17.20
2016,07,26,07,48,17.20
2016,07,26,07,49,17.20
2016,07,26,07,50,17.10
2016,07,26,07,51,17.10
2016,07,26,07,52,17.20
2016,07,26,07,53,17.20
2016,07,26,07,54,17.20
2016,07,26,07,55,17.20
2016,07,26,07,56,17.20
2016,07,26,07,57,17.30
2016,07,26,07,58,17.30
2016,07,26,07,59,17.30
2016,07,26,08,00,17.30
2016,07,26,08,01,17.30
2016,07,26,08,02,17.40
2016,07,26,08,03,17.50
2016,07,26,08,04,17.50
2016,07,26,08,05,17.60
2016,07,26,08,06,17.70
2016,07,26,08,07,17.70
2016,07,26,08,08,17.70
2016,07,26,08,09,17.70
2016,07,26,08,10,17.70
2016,07,26,08,11,17.70
2016,07,26,08,12,17.70
2016,07,26,08,13,17.70
2016,07,26,08,14,17.70
2016,07,26,08,15,17.80
2016,07,26,08,16,17.80
2016,07,26,08,17,17.80
2016,07,26,08,18,17.80
2016,07,26,08,19,17.80
2016,07,26,08,20,17.90
2016,07,26,08,21,18.00
2016,07,26,08,22,18.00
2016,07,26,08,23,18.10
2016,07,26,08,24,18.20
2016,07,26,08,25,18.20
2016,07,26,08,26,18.30
2016,07,26,08,27,18.30
2016,07,26,08,28,18.40
2016,07,26,08,29,18.50
2016,07,26,08,30,18.60
2016,07,26,08,31,18.70
2016,07,26,08,32,18.70
2016,07,26,08,33,18.70
2016,07,26,08,34,18.80
2016,07,26,08,35,18.90
2016,07,26,08,36,18.90
2016,07,26,08,37,19.00
2016,07,26,08,38,19.00
2016,07,26,08,39,19.10
2016,07,26,08,40,19.10
2016,07,26,08,41,19.20
2016,07,26,08,42,19.20
2016,07,26,08,43,19.20
2016,07,26,08,44,19.20
2016,07,26,08,45,19.20
2016,07,26,08,46,19.20
2016,07,26,08,47,19.30
2016,07,26,08,48,19.30
2016,07,26,08,49,19.40
2016,07,26,08,50,19.50
2016,07,26,08,51,19.50
2016,07,26,08,52,19.50
2016,07,26,08,53,19.50
2016,07,26,08,54,19.50
2016,07,26,08,55,19.40
2016,07,26,08,56,19.40
2016,07,26,08,57,19.40
2016,07,26,08,58,19.30
2016,07,26,08,59,19.30
2016,07,26,09,00,19.30
2016,07,26,09,01,19.40
2016,07,26,09,02,19.50
2016,07,26,09,03,19.50
2016,07,26,09,04,19.60
2016,07,26,09,05,19.60
2016,07,26,09,06,19.70
2016,07,26,09,07,19.70
2016,07,26,09,08,19.80
2016,07,26,09,09,19.90
2016,07,26,09,10,19.90
2016,07,26,09,11,20.00
2016,07,26,09,12,20.00
2016,07,26,09,13,20.00
2016,07,26,09,14,20.00
2016,07,26,09,15,20.00
2016,07,26,09,16,20.00
2016,07,26,09,17,19.90
2016,07,26,09,18,19.90
2016,07,26,09,19,19.90
2016,07,26,09,20,19.90
2016,07,26,09,21,19.90
2016,07,26,09,22,19.80
2016,07,26,09,23,19.80
2016,07,26,09,24,19.80
2016,07,26,09,25,19.70
2016,07,26,09,26,19.80
2016,07,26,09,27,19.80
2016,07,26,09,28,19.90
2016,07,26,09,29,20.00
2016,07,26,09,30,20.10
2016,07,26,09,31,20.10
2016,07,26,09,32,20.20
2016,07,26,09,33,20.30
2016,07,26,09,34,20.40
2016,07,26,09,35,20.50
2016,07,26,09,36,20.50
2016,07,26,09,37,20.50
2016,07,26,09,38,20.40
2016,07,26,09,39,20.40
2016,07,26,09,40,20.30
2016,07,26,09,41,20.30
2016,07,26,09,42,20.20
2016,07,26,09,43,20.10
2016,07,26,09,44,20.10
2016,07,26,09,45,20.10
2016,07,26,09,46,20.20
2016,07,26,09,47,20.30
2016,07,26,09,48,20.40
2016,07,26,09,49,20.50
2016,07,26,09,50,20.50
2016,07,26,09,51,20.50
2016,07,26,09,52,20.50
2016,07,26,09,53,20.50
2016,07,26,09,54,20.50
2016,07,26,09,55,20.60
2016,07,26,09,56,20.60
2016,07,26,09,57,20.70
2016,07,26,09,58,20.70
2016,07,26,09,59,20.60
2016,07,26,10,00,20.50
2016,07,26,10,01,20.50
2016,07,26,10,02,20.50
2016,07,26,10,03,20.40
2016,07,26,10,04,20.40
2016,07,26,10,05,20.30
2016,07,26,10,06,20.20
2016,07,26,10,07,20.10
2016,07,26,10,08,20.10
2016,07,26,10,09,20.00
2016,07,26,10,10,20.00
2016,07,26,10,11,19.90
2016,07,26,10,12,19.90
2016,07,26,10,13,19.90
2016,07,26,10,14,19.90
2016,07,26,10,15,19.90
2016,07,26,10,16,20.00
2016,07,26,10,17,20.00
2016,07,26,10,18,20.00
2016,07,26,10,19,20.00
2016,07,26,10,20,20.00
2016,07,26,10,21,20.10
2016,07,26,10,22,20.10
2016,07,26,10,23,20.10
2016,07,26,10,24,20.00
2016,07,26,10,25,20.00
2016,07,26,10,26,19.90
2016,07,26,10,27,19.80
2016,07,26,10,28,19.70
2016,07,26,10,29,19.70
2016,07,26,10,30,19.80
2016,07,26,10,31,19.80
2016,07,26,10,32,19.90
2016,07,26,10,33,20.00
2016,07,26,10,34,20.10
2016,07,26,10,35,20.20
2016,07,26,10,36,20.20
2016,07,26,10,37,20.20
2016,07,26,10,38,20.10
2016,07,26,10,39,20.10
2016,07,26,10,40,20.00
2016,07,26,10,41,20.00
2016,07,26,10,42,19.90
2016,07,26,10,43,19.90
2016,07,26,10,44,20.00
2016,07,26,10,45,20.00
2016,07,26,10,46,20.10
2016,07,26,10,47,20.20
2016,07,26,10,48,20.10
2016,07,26,10,49,20.10
2016,07,26,10,50,20.10
2016,07,26,10,51,20.10
2016,07,26,10,52,20.20
2016,07,26,10,53,20.20
2016,07,26,10,54,20.20
2016,07,26,10,55,20.30
2016,07,26,10,56,20.50
2016,07,26,10,57,20.60
2016,07,26,10,58,20.70
2016,07,26,10,59,20.80
2016,07,26,11,00,20.90
2016,07,26,11,01,20.90
2016,07,26,11,02,20.90
2016,07,26,11,03,21.00
2016,07,26,11,04,21.00
2016,07,26,11,05,21.00
2016,07,26,11,06,20.90
2016,07,26,11,07,20.90
2016,07,26,11,08,20.90
2016,07,26,11,09,20.80
2016,07,26,11,10,20.80
2016,07,26,11,11,20.70
2016,07,26,11,12,20.70
2016,07,26,11,13,20.70
2016,07,26,11,14,20.80
2016,07,26,11,15,20.90
2016,07,26,11,16,20.90
2016,07,26,11,17,20.90
2016,07,26,11,18,20.90
2016,07,26,11,19,21.00
2016,07,26,11,20,21.10
2016,07,26,11,21,21.20
2016,07,26,11,22,21.30
2016,07,26,11,23,21.40
2016,07,26,11,24,21.50
2016,07,26,11,25,21.50
2016,07,26,11,26,21.40
2016,07,26,11,27,21.30
2016,07,26,11,28,21.10
2016,07,26,11,29,21.00
2016,07,26,11,30,21.00
2016,07,26,11,31,21.00
2016,07,26,11,32,21.10
2016,07,26,11,33,21.10
2016,07,26,11,34,21.20
2016,07,26,11,35,21.30
2016,07,26,11,36,21.40
2016,07,26,11,37,21.50
2016,07,26,11,38,21.60
2016,07,26,11,39,21.60
2016,07,26,11,40,21.50
2016,07,26,11,41,21.40
2016,07,26,11,42,21.30
2016,07,26,11,43,21.20
2016,07,26,11,44,21.20
2016,07,26,11,45,21.20
2016,07,26,11,46,21.20
2016,07,26,11,47,21.30
2016,07,26,11,48,21.30
2016,07,26,11,49,21.30
2016,07,26,11,50,21.20
2016,07,26,11,51,21.20
2016,07,26,11,52,21.20
2016,07,26,11,53,21.10
2016,07,26,11,54,21.00
2016,07,26,11,55,20.90
2016,07,26,11,56,20.90
2016,07,26,11,57,20.80
2016,07,26,11,58,20.80
2016,07,26,11,59,20.80
2016,07,26,12,00,20.90
2016,07,26,12,01,21.10
2016,07,26,12,02,21.20
2016,07,26,12,03,21.30
2016,07,26,12,04,21.40
2016,07,26,12,05,21.50
2016,07,26,12,06,21.60
2016,07,26,12,07,21.50
2016,07,26,12,08,21.50
2016,07,26,12,09,21.50
2016,07,26,12,10,21.40
2016,07,26,12,11,21.30
2016,07,26,12,12,21.30
2016,07,26,12,13,21.30
2016,07,26,12,14,21.30
2016,07,26,12,15,21.30
2016,07,26,12,16,21.30
2016,07,26,12,17,21.30
2016,07,26,12,18,21.40
2016,07,26,12,19,21.50
2016,07,26,12,20,21.60
2016,07,26,12,21,21.60
2016,07,26,12,22,21.70
2016,07,26,12,23,21.80
2016,07,26,12,24,21.90
2016,07,26,12,25,22.00
2016,07,26,12,26,22.10
2016,07,26,12,27,22.20
2016,07,26,12,28,22.30
2016,07,26,12,29,22.30
2016,07,26,12,30,22.40
2016,07,26,12,31,22.40
2016,07,26,12,32,22.40
2016,07,26,12,33,22.20
2016,07,26,12,34,22.10
2016,07,26,12,35,22.10
2016,07,26,12,36,22.00
2016,07,26,12,37,21.90
2016,07,26,12,38,21.90
2016,07,26,12,39,21.80
2016,07,26,12,40,21.80
2016,07,26,12,41,21.90
2016,07,26,12,42,21.90
2016,07,26,12,43,22.00
2016,07,26,12,44,22.10
2016,07,26,12,45,22.10
2016,07,26,12,46,22.20
2016,07,26,12,47,22.20
2016,07,26,12,48,22.20
2016,07,26,12,49,22.20
2016,07,26,12,50,22.20
2016,07,26,12,51,22.20
2016,07,26,12,52,22.20
2016,07,26,12,53,22.20
2016,07,26,12,54,22.30
2016,07,26,12,55,22.30
2016,07,26,12,56,22.30
2016,07,26,12,57,22.20
2016,07,26,12,58,22.20
2016,07,26,12,59,22.20
2016,07,26,13,00,22.30
2016,07,26,13,01,22.40
2016,07,26,13,02,22.50
2016,07,26,13,03,22.60
2016,07,26,13,04,22.70
2016,07,26,13,05,22.70
2016,07,26,13,06,22.70
2016,07,26,13,07,22.80
2016,07,26,13,08,22.80
2016,07,26,13,09,22.80
2016,07,26,13,10,22.80
2016,07,26,13,11,22.80
2016,07,26,13,12,22.80
2016,07,26,13,13,22.80
2016,07,26,13,14,22.90
2016,07,26,13,15,23.00
2016,07,26,13,16,23.00
2016,07,26,13,17,23.00
2016,07,26,13,18,22.90
2016,07,26,13,19,22.90
2016,07,26,13,20,22.80
2016,07,26,13,21,22.90
2016,07,26,13,22,23.00
2016,07,26,13,23,23.10
2016,07,26,13,24,23.20
2016,07,26,13,25,23.20
2016,07,26,13,26,23.20
2016,07,26,13,27,23.10
2016,07,26,13,28,23.00
2016,07,26,13,29,23.00
2016,07,26,13,30,22.90
2016,07,26,13,31,22.90
2016,07,26,13,32,22.90
2016,07,26,13,33,22.90
2016,07,26,13,34,22.90
2016,07,26,13,35,22.90
2016,07,26,13,36,22.80
2016,07,26,13,37,22.80
2016,07,26,13,38,22.70
2016,07,26,13,39,22.60
2016,07,26,13,40,22.60
2016,07,26,13,41,22.60
2016,07,26,13,42,22.70
2016,07,26,13,43,22.80
2016,07,26,13,44,22.90
2016,07,26,13,45,23.00
2016,07,26,13,46,23.10
2016,07,26,13,47,23.20
2016,07,26,13,48,23.30
2016,07,26,13,49,23.40
2016,07,26,13,50,23.30
2016,07,26,13,51,23.40
2016,07,26,13,52,23.40
2016,07,26,13,53,23.40
2016,07,26,13,54,23.40
2016,07,26,13,55,23.40
2016,07,26,13,56,23.40
2016,07,26,13,57,23.40
2016,07,26,13,58,23.40
2016,07,26,13,59,23.40
2016,07,26,14,00,23.50
2016,07,26,14,01,23.50
2016,07,26,14,02,23.60
2016,07,26,14,03,23.50
2016,07,26,14,04,23.50
2016,07,26,14,05,23.40
2016,07,26,14,06,23.40
2016,07,26,14,07,23.30
2016,07,26,14,08,23.30
2016,07,26,14,09,23.40
2016,07,26,14,10,23.40
2016,07,26,14,11,23.50
2016,07,26,14,12,23.60
2016,07,26,14,13,23.70
2016,07,26,14,14,23.60
2016,07,26,14,15,23.50
2016,07,26,14,16,23.40
2016,07,26,14,17,23.30
2016,07,26,14,18,23.30
2016,07,26,14,19,23.20
2016,07,26,14,20,23.20
2016,07,26,14,21,23.20
2016,07,26,14,22,23.20
2016,07,26,14,23,23.10
2016,07,26,14,24,23.10
2016,07,26,14,25,23.10
2016,07,26,14,26,23.10
2016,07,26,14,27,23.10
2016,07,26,14,28,23.10
2016,07,26,14,29,23.10
2016,07,26,14,30,23.20
2016,07,26,14,31,23.30
2016,07,26,14,32,23.30
2016,07,26,14,33,23.40
2016,07,26,14,34,23.50
2016,07,26,14,35,23.50
2016,07,26,14,36,23.50
2016,07,26,14,37,23.60
2016,07,26,14,38,23.60
2016,07,26,14,39,23.70
2016,07,26,14,40,23.80
2016,07,26,14,41,24.10
2016,07,26,14,42,24.30
2016,07,26,14,43,24.50
2016,07,26,14,44,24.70
2016,07,26,14,45,24.80
2016,07,26,14,46,24.90
2016,07,26,14,47,24.90
2016,07,26,14,48,24.80
2016,07,26,14,49,24.80
2016,07,26,14,50,24.70
2016,07,26,14,51,24.70
2016,07,26,14,52,24.60
2016,07,26,14,53,24.60
2016,07,26,14,54,24.70
2016,07,26,14,55,24.80
2016,07,26,14,56,24.80
2016,07,26,14,57,24.90
2016,07,26,14,58,24.90
2016,07,26,14,59,24.90
2016,07,26,15,00,24.90
2016,07,26,15,01,24.90
2016,07,26,15,02,24.80
2016,07,26,15,03,24.90
2016,07,26,15,04,24.90
2016,07,26,15,05,25.00
2016,07,26,15,06,25.00
2016,07,26,15,07,25.00
2016,07,26,15,08,24.90
2016,07,26,15,09,24.90
2016,07,26,15,10,24.90
2016,07,26,15,11,24.90
2016,07,26,15,12,24.80
2016,07,26,15,13,24.90
2016,07,26,15,14,24.90
2016,07,26,15,15,24.90
2016,07,26,15,16,24.90
2016,07,26,15,17,24.90
2016,07,26,15,18,24.90
2016,07,26,15,19,25.00
2016,07,26,15,20,25.00
2016,07,26,15,21,25.10
2016,07,26,15,22,25.10
2016,07,26,15,23,25.10
2016,07,26,15,24,25.10
2016,07,26,15,25,25.10
2016,07,26,15,26,25.10
2016,07,26,15,27,25.10
2016,07,26,15,28,25.10
2016,07,26,15,29,25.10
2016,07,26,15,30,25.20
2016,07,26,15,31,25.20
2016,07,26,15,32,25.30
2016,07,26,15,33,25.40
2016,07,26,15,34,25.50
2016,07,26,15,35,25.60
2016,07,26,15,36,25.60
2016,07,26,15,37,25.60
2016,07,26,15,38,25.60
2016,07,26,15,39,25.70
2016,07,26,15,40,25.50
2016,07,26,15,41,25.40
2016,07,26,15,42,25.20
2016,07,26,15,43,25.10
2016,07,26,15,44,25.10
2016,07,26,15,45,25.10
2016,07,26,15,46,25.10
2016,07,26,15,47,25.10
2016,07,26,15,48,25.10
2016,07,26,15,49,25.10
2016,07,26,15,50,25.10
2016,07,26,15,51,25.20
2016,07,26,15,52,25.20
2016,07,26,15,53,25.20
2016,07,26,15,54,25.30
2016,07,26,15,55,25.30
2016,07,26,15,56,25.30
2016,07,26,15,57,25.30
2016,07,26,15,58,25.30
2016,07,26,15,59,25.30
2016,07,26,16,00,25.30
2016,07,26,16,01,25.30
2016,07,26,16,02,25.30
2016,07,26,16,03,25.20
2016,07,26,16,04,25.20
2016,07,26,16,05,25.20
2016,07,26,16,06,25.20
2016,07,26,16,07,25.20
2016,07,26,16,08,25.20
2016,07,26,16,09,25.20
2016,07,26,16,10,25.30
2016,07,26,16,11,25.30
2016,07,26,16,12,25.30
2016,07,26,16,13,25.40
2016,07,26,16,14,25.40
2016,07,26,16,15,25.50
2016,07,26,16,16,25.60
2016,07,26,16,17,25.70
2016,07,26,16,18,25.80
2016,07,26,16,19,25.90
2016,07,26,16,20,26.00
2016,07,26,16,21,26.10
2016,07,26,16,22,26.20
2016,07,26,16,23,26.20
2016,07,26,16,24,26.10
2016,07,26,16,25,26.20
2016,07,26,16,26,26.20
2016,07,26,16,27,26.20
2016,07,26,16,28,26.20
2016,07,26,16,29,26.20
2016,07,26,16,30,26.20
2016,07,26,16,31,26.20
2016,07,26,16,32,26.20
2016,07,26,16,33,26.30
2016,07,26,16,34,26.30
2016,07,26,16,35,26.20
2016,07,26,16,36,26.10
2016,07,26,16,37,26.10
2016,07,26,16,38,26.10
2016,07,26,16,39,26.20
2016,07,26,16,40,26.20
2016,07,26,16,41,26.10
2016,07,26,16,42,26.10
2016,07,26,16,43,26.10
2016,07,26,16,44,26.10
2016,07,26,16,45,26.10
2016,07,26,16,46,26.10
2016,07,26,16,47,26.20
2016,07,26,16,48,26.20
2016,07,26,16,49,26.30
2016,07,26,16,50,26.30
2016,07,26,16,51,26.30
2016,07,26,16,52,26.30
2016,07,26,16,53,26.40
2016,07,26,16,54,26.40
2016,07,26,16,55,26.50
2016,07,26,16,56,26.60
2016,07,26,16,57,26.70
2016,07,26,16,58,26.70
2016,07,26,16,59,26.80
2016,07,26,17,00,26.80
2016,07,26,17,01,26.80
2016,07,26,17,02,26.90
2016,07,26,17,03,26.90
2016,07,26,17,04,26.90
2016,07,26,17,05,27.00
2016,07,26,17,06,27.10
2016,07,26,17,07,27.10
2016,07,26,17,08,27.20
2016,07,26,17,09,27.30
2016,07,26,17,10,27.20
2016,07,26,17,11,27.20
2016,07,26,17,12,27.10
2016,07,26,17,13,27.10
2016,07,26,17,14,27.00
2016,07,26,17,15,26.90
2016,07,26,17,16,26.80
2016,07,26,17,17,26.70
2016,07,26,17,18,26.70
2016,07,26,17,19,26.70